Aérodrome :
LOGIN :

S'inscrire | Disclaimer

   EN    FR    IT 

 










Légende :    VFR   VFR Marginal   IFR   IFR Intensif   IFR Très Intensif
Visi : 
Plafond : 
>= 8 km
>= 3000ft
5 à 8 km
1000 à 3000 ft
1500m à 5 km
500 à 1000 ft
800 à 1500m
200 à 500 ft
< 800m
< 200 ft
Symboles :   Orages  Brouillard  Fortes neiges  Fortes précipitations  Vent > 20 kt
SIGMETs :   Divers  Orages  Givrage  Turbulence  Onde Orograph.  Cendres Volcan.






- Altitude de l'aérodrome : 1766 ft


ETHL - Laupheim AB

DERNIER METAR :
  • 041530Z 19005KT 9999 -RA SCT020 BKN060 16/13 Q1013 BLU FCST CNL

METARs EXPIRÉS :
  • 041420Z VRB02KT 9999 SCT020 BKN040 BKN080 17/12 Q1014 BLU BLU TEMPO WHT
  • 041320Z 12004KT 9999 SCT020 BKN040 BKN180 18/11 Q1014 BLU BLU TEMPO WHT

TAF TAF ETHL
Valide du 04 à 14h jusqu'au 04 à 23h UTC


041325Z 0414/0423 VRB03KT 9999 NSW SCT020 BKN050
TEMPO 0414/0420 16005KT 7000 -RA BKN020 OVC040
TEMPO 0420/0423 20004KT 4000 BR SCT007 BKN012



MET'MAP, la Météo Aéronautique d'un coup d'oeil ! - Copyright ORBIFLY Décembre 2007 - Disclaimer

ORBIFLY MET'MAP TEAM :

Programmation & Développement : Alexandra Zaïnal
Sur une idée originale de : Baudouin d'Aumeries
Assistance à la programmation : Marc-Olivier Méhu
Soutien technique & logistique : Manuel Goepfert

Contact : metmap@orbifly.com




SOURCES & CREDITS :

   NOAA